Tracking 27112 objects as of 27-Mar-2023
HD Live streaming from Space Station
objects crossing your sky now

SL-16 DEB

Track SL-16 DEB now!
10-day predictions


NORAD ID: 22357
Int'l Code: 1992-093AW
Perigee: 579.0 km
Apogee: 666.5 km
Inclination: 70.9 °
Period: 97.0 minutes
Semi major axis: 6993 km
RCS: 0.0561 m2 (small)
Launch date: December 25, 1992
Source: Commonwealth of Independent States (former USSR) (CIS)
Launch site: TYURATAM MISSILE AND SPACE COMPLEX (TTMTR)

Note: This is SATELLITE DEBRIS
Your satellite tracking list
Your tracking list is empty




NASA's NSSDC Master Catalog

Two Line Element Set (TLE):
1 22357U 92093AW  23085.83176084  .00013567  00000-0  15643-2 0  9990
2 22357  70.8673 240.6475 0062551  91.1470  22.1270 14.84348748613567
Source of the keplerian elements: AFSPC